"Pseudo-MPEC" for P11WHj2

Created 2024 Aug 2 18:22:07 UT using Find_Orb

Click here for an explanation of pseudo-MPECs

 
 Astrometry: 
     P11WHj2  C2024 06 29.47468320 59 36.990-20 37 58.09   ~82Hq 20.89GVNEOCPF52
     P11WHj2  C2024 06 29.48648920 59 37.364-20 37 51.60   ~82Hq 22.54GVNEOCPF52
     P11WHj2  C2024 06 29.51012520 59 38.148-20 37 38.88   ~82Hq 21.78GVNEOCPF52
     P11WHj2  C2024 07 06.55591821 03 19.629-19 28 39.37   ~82Hq 21.72GVNEOCPF51
     P11WHj2  C2024 07 06.56582021 03 19.820-19 28 33.05   ~82Hq 21.39GVNEOCPF51
     P11WHj2  C2024 07 09.49842721 04 26.358-18 57 28.36   ~82Hq 21.75GVNEOCPF51
     P11WHj2  C2024 07 09.51964421 04 26.630-18 57 14.69   ~82Hq 22.25GVNEOCPF51
     P11WHj2  C2024 07 09.53026221 04 26.777-18 57 07.84   ~82Hq 21.54GVNEOCPF51
     P11WHj2  C2024 07 26.50814021 06 06.443-15 24 21.83   ~7UNq 20.78GVNEOCPF52
     P11WHj2  C2024 07 26.52210521 06 06.238-15 24 09.99   ~7UNq 20.54GVNEOCPF52
     P11WHj2* C2024 07 30.43359421 05 32.119-14 26 46.12   ~7UE7 20.71wXNEOCPF51
     P11WHj2  C2024 07 30.44605021 05 31.877-14 26 34.81   ~7UE7 20.82wXNEOCPF51
     P11WHj2  C2024 07 30.47093521 05 31.389-14 26 12.38   ~7UE7 20.88wXNEOCPF51
     P11WHj2 KB2024 07 30.90559 21 05 27.14 -14 19 44.5    ~7UMb 21.0 RZNEOCP106
     P11WHj2 KB2024 07 30.91028 21 05 27.02 -14 19 40.2    ~7UMb 20.5 RZNEOCP106
     P11WHj2 KB2024 07 30.91497 21 05 26.96 -14 19 35.1    ~7UMb 20.7 RZNEOCP106
     P11WHj2 KB2024 07 30.91966 21 05 26.91 -14 19 31.0    ~7UMb 20.8 RZNEOCP106

Station data:
(106) Črni Vrh  (N45.945905 E14.071100)  Slovenia.  Observer J. Skvarč. 0.6-m
   f/3.3 Deltagraph + CCD.
(F51) Pan-STARRS 1, Haleakala  (N20.707234 W156.255910)  US/Hawaii.
   Observers J. Bulger, T. Lowe, A. Schultz, M. Willman. Measurers K.
   Chambers, S. Chastel, T. de Boer, L. Denneau, J. Fairlamb, H. Flewelling,
   M. Huber, C.-C. Lin, E. Magnier, Y. Ramanjooloo, R. Wainscoat, R. Weryk.
   1.8-m Ritchey-Chrétien + CCD.
(F52) Pan-STARRS 2, Haleakala  (N20.707382 W156.255910)  US/Hawaii.
   Observers J. Bulger, T. Dukes, T. Lowe, A. Schultz, M. Willman. Measurers
   K. Chambers, S. Chastel, T. de Boer, L. Denneau, J. Fairlamb, H.
   Flewelling, M. Huber, C.-C. Lin, E. Magnier, Y. Ramanjooloo, R. Wainscoat,
   R. Weryk. 1.8-m Ritchey-Chrétien + CCD.

Orbital elements:  P11WHj2
   Perihelion 2024 Sep 21.05841 +/- 0.00423 TT =  1:24:06 (JD 2460574.55841)
Epoch 2024 Jul 30.0 TT = JDT 2460521.5   Earth MOID: 0.3325   Ma: 0.0733
M 347.67397884 +/- 0.0027           (J2000 ecliptic)             AutoNEOCP
n   0.23231043 +/- 4.74e-5          Peri.   45.21399 +/- 0.0043
a   2.62073778 +/- 0.000357         Node   303.54933 +/- 0.00028
e   0.4926860 +/- 5.61e-5           Incl.    5.99653 +/- 0.00052
P   4.24263                H 21.43  G  0.15   U  6.1
q 1.32953671 +/- 4.88e-5    Q 3.91193886 +/- 0.000677
From 17 observations 2024 June 29-July 30; mean residual 0".20
Residuals in arcseconds: 
240629 F52  .04-  .05+    240709 F51  .03-  .03-    240730 F51  .07-  .04-    
240629 F52  .13-  .10+    240709 F51  .06+  .13-    240730 106  .05+  .41-    
240629 F52  .24+  .16-    240726 F52  .06+  .15+    240730 106  .54-  .33-    
240706 F51  .11-  .02-    240726 F52  .01+  .11-    240730 106  .25-  .56+    
240706 F51  .06-  .07+    240730 F51  .05+  .06-    240730 106  .19+  .43+    
240709 F51  .09+  .11+    240730 F51  .03+  .03+    

Ephemerides (geocentric):
Date (UTC) HH   RA             Dec           delta  r     elong  mag " sig PA
---- --------  ------------   ------------  ------ ------ -----  --- --------
2024 08 02 18  21 04 51.314   -13 35 35.72  .41037 1.4240 175.0 20.6 .094 102
2024 08 02 19  21 04 50.755   -13 34 56.53  .41021 1.4239 175.0 20.6 .095 102
2024 08 02 20  21 04 50.196   -13 34 17.31  .41006 1.4237 175.0 20.6 .096 102
2024 08 02 21  21 04 49.635   -13 33 38.08  .40990 1.4236 175.0 20.6 .097 102
2024 08 02 22  21 04 49.074   -13 32 58.84  .40975 1.4234 175.1 20.6 .097 102
2024 08 02 23  21 04 48.511   -13 32 19.57  .40959 1.4233 175.1 20.6 .098 102
2024 08 03 00  21 04 47.948   -13 31 40.29  .40943 1.4231 175.1 20.6 .099 102
2024 08 03 01  21 04 47.384   -13 31 00.98  .40928 1.4230 175.1 20.6 .100 102
2024 08 03 02  21 04 46.819   -13 30 21.66  .40913 1.4228 175.2 20.6 .101 102
2024 08 03 03  21 04 46.252   -13 29 42.32  .40897 1.4227 175.2 20.6 .102 102
2024 08 03 04  21 04 45.685   -13 29 02.96  .40882 1.4225 175.2 20.6 .103 102
2024 08 03 05  21 04 45.118   -13 28 23.59  .40866 1.4224 175.2 20.6 .103 102
2024 08 03 06  21 04 44.549   -13 27 44.19  .40851 1.4222 175.3 20.6 .104 102
2024 08 03 07  21 04 43.979   -13 27 04.78  .40836 1.4221 175.3 20.6 .105 102
2024 08 03 08  21 04 43.408   -13 26 25.35  .40820 1.4219 175.3 20.6 .106 102
2024 08 03 09  21 04 42.837   -13 25 45.90  .40805 1.4218 175.3 20.6 .107 102
2024 08 03 10  21 04 42.265   -13 25 06.43  .40790 1.4216 175.3 20.6 .108 102
2024 08 03 11  21 04 41.691   -13 24 26.95  .40774 1.4215 175.4 20.6 .109 102
2024 08 03 12  21 04 41.117   -13 23 47.44  .40759 1.4213 175.4 20.6 .109 102
2024 08 03 13  21 04 40.542   -13 23 07.92  .40744 1.4212 175.4 20.6 .110 102
2024 08 03 14  21 04 39.967   -13 22 28.38  .40729 1.4210 175.4 20.6 .111 102
2024 08 03 15  21 04 39.390   -13 21 48.82  .40714 1.4209 175.4 20.6 .112 102
2024 08 03 16  21 04 38.813   -13 21 09.25  .40699 1.4207 175.5 20.6 .113 102
2024 08 03 17  21 04 38.235   -13 20 29.66  .40683 1.4206 175.5 20.6 .114 102
2024 08 03 18  21 04 37.656   -13 19 50.04  .40668 1.4204 175.5 20.6 .115 102
2024 08 03 19  21 04 37.076   -13 19 10.41  .40653 1.4203 175.5 20.6 .116 102
2024 08 03 20  21 04 36.496   -13 18 30.77  .40638 1.4201 175.5 20.6 .116 102
2024 08 03 21  21 04 35.914   -13 17 51.10  .40623 1.4200 175.6 20.6 .117 102
2024 08 03 22  21 04 35.332   -13 17 11.42  .40608 1.4198 175.6 20.5 .118 102
2024 08 03 23  21 04 34.750   -13 16 31.72  .40594 1.4197 175.6 20.5 .119 102
2024 08 04 00  21 04 34.166   -13 15 52.00  .40579 1.4195 175.6 20.5 .120 102
2024 08 04 01  21 04 33.582   -13 15 12.26  .40564 1.4194 175.6 20.5 .121 102
2024 08 04 02  21 04 32.997   -13 14 32.51  .40549 1.4193 175.6 20.5 .122 102
2024 08 04 03  21 04 32.411   -13 13 52.74  .40534 1.4191 175.7 20.5 .123 102
2024 08 04 04  21 04 31.825   -13 13 12.95  .40519 1.4190 175.7 20.5 .123 102
2024 08 04 05  21 04 31.238   -13 12 33.14  .40505 1.4188 175.7 20.5 .124 102
2024 08 04 06  21 04 30.650   -13 11 53.31  .40490 1.4187 175.7 20.5 .125 102
2024 08 04 07  21 04 30.061   -13 11 13.47  .40475 1.4185 175.7 20.5 .126 102
2024 08 04 08  21 04 29.472   -13 10 33.61  .40460 1.4184 175.7 20.5 .127 102
2024 08 04 09  21 04 28.882   -13 09 53.73  .40446 1.4182 175.8 20.5 .128 102
2024 08 04 10  21 04 28.292   -13 09 13.84  .40431 1.4181 175.8 20.5 .129 102
2024 08 04 11  21 04 27.701   -13 08 33.93  .40416 1.4179 175.8 20.5 .130 102
2024 08 04 12  21 04 27.109   -13 07 54.00  .40402 1.4178 175.8 20.5 .131 102
2024 08 04 13  21 04 26.516   -13 07 14.05  .40387 1.4176 175.8 20.5 .131 102
2024 08 04 14  21 04 25.923   -13 06 34.08  .40373 1.4175 175.8 20.5 .132 102
2024 08 04 15  21 04 25.330   -13 05 54.10  .40358 1.4173 175.8 20.5 .133 102
2024 08 04 16  21 04 24.736   -13 05 14.10  .40344 1.4172 175.8 20.5 .134 102
2024 08 04 17  21 04 24.141   -13 04 34.08  .40329 1.4170 175.9 20.5 .135 102